Time,TemperatureF,DewpointF,PressureIn,WindDirection,WindDirectionDegrees,WindSpeedMPH,WindSpeedGustMPH,Humidity,HourlyPrecipIn,Conditions,Clouds,dailyrainin,SoftwareType,DateUTC
2013-04-10 00:22:00,37.0,21.0,30.06,North,0,0.0,-999.0,51,0.00,,,-99.99,,2013-04-10 07:22:00,
2013-04-10 00:32:00,37.0,21.0,30.06,North,0,0.0,-999.0,51,0.00,,,-99.99,,2013-04-10 07:32:00,
2013-04-10 00:42:00,37.0,21.0,30.06,North,0,0.0,-999.0,51,0.00,,,-99.99,,2013-04-10 07:42:00,
2013-04-10 00:52:00,37.0,21.0,30.06,North,0,0.0,-999.0,51,0.00,,,-99.99,,2013-04-10 07:52:00,
2013-04-10 01:22:00,37.0,20.0,30.07,North,0,0.0,-999.0,49,0.00,,,-99.99,,2013-04-10 08:22:00,
2013-04-10 01:32:00,37.0,20.0,30.07,North,0,0.0,-999.0,49,0.00,,,-99.99,,2013-04-10 08:32:00,
2013-04-10 01:42:00,37.0,20.0,30.07,North,0,0.0,-999.0,49,0.00,,,-99.99,,2013-04-10 08:42:00,
2013-04-10 01:52:00,37.0,20.0,30.07,North,0,0.0,-999.0,49,0.00,,,-99.99,,2013-04-10 08:52:00,
2013-04-10 02:22:00,38.0,19.0,30.07,North,0,0.0,-999.0,46,0.00,,,-99.99,,2013-04-10 09:22:00,
2013-04-10 02:32:00,38.0,19.0,30.07,North,0,0.0,-999.0,46,0.00,,,-99.99,,2013-04-10 09:32:00,
2013-04-10 02:42:00,38.0,19.0,30.07,North,0,0.0,-999.0,46,0.00,,,-99.99,,2013-04-10 09:42:00,
2013-04-10 02:52:00,38.0,19.0,30.07,North,0,0.0,-999.0,46,0.00,,,-99.99,,2013-04-10 09:52:00,
2013-04-10 03:23:00,41.0,17.0,30.05,North,0,0.0,-999.0,38,0.00,,,-99.99,,2013-04-10 10:23:00,
2013-04-10 03:33:00,41.0,17.0,30.05,North,0,0.0,-999.0,38,0.00,,,-99.99,,2013-04-10 10:33:00,
2013-04-10 03:42:00,41.0,17.0,30.05,North,0,0.0,-999.0,38,0.00,,,-99.99,,2013-04-10 10:42:00,
2013-04-10 03:52:00,41.0,17.0,30.05,North,0,0.0,-999.0,38,0.00,,,-99.99,,2013-04-10 10:52:00,
2013-04-10 04:22:00,42.0,16.0,30.05,ESE,120,1.0,-999.0,34,0.00,,,-99.99,,2013-04-10 11:22:00,
2013-04-10 04:32:00,42.0,16.0,30.05,ESE,120,1.0,-999.0,34,0.00,,,-99.99,,2013-04-10 11:32:00,
2013-04-10 04:42:00,42.0,16.0,30.05,ESE,120,1.0,-999.0,34,0.00,,,-99.99,,2013-04-10 11:42:00,
2013-04-10 04:52:00,42.0,16.0,30.05,ESE,120,1.0,-999.0,34,0.00,,,-99.99,,2013-04-10 11:52:00,
2013-04-10 05:22:00,41.0,16.0,30.07,North,0,0.0,-999.0,36,0.00,,,-99.99,,2013-04-10 12:22:00,
2013-04-10 05:32:00,41.0,16.0,30.07,North,0,0.0,-999.0,36,0.00,,,-99.99,,2013-04-10 12:32:00,
2013-04-10 05:42:00,41.0,16.0,30.07,North,0,0.0,-999.0,36,0.00,,,-99.99,,2013-04-10 12:42:00,
2013-04-10 05:52:00,41.0,16.0,30.07,North,0,0.0,-999.0,36,0.00,,,-99.99,,2013-04-10 12:52:00,
2013-04-10 06:23:00,42.0,14.0,30.07,North,0,0.0,-999.0,32,0.00,,,-99.99,,2013-04-10 13:23:00,
2013-04-10 06:32:00,42.0,14.0,30.07,North,0,0.0,-999.0,32,0.00,,,-99.99,,2013-04-10 13:32:00,
2013-04-10 06:42:00,42.0,14.0,30.07,North,0,0.0,-999.0,32,0.00,,,-99.99,,2013-04-10 13:42:00,
2013-04-10 06:52:00,42.0,14.0,30.07,North,0,0.0,-999.0,32,0.00,,,-99.99,,2013-04-10 13:52:00,
2013-04-10 07:22:00,43.0,14.0,30.08,ESE,110,2.0,-999.0,30,0.00,,,-99.99,,2013-04-10 14:22:00,
2013-04-10 07:32:00,43.0,14.0,30.08,ESE,110,2.0,-999.0,30,0.00,,,-99.99,,2013-04-10 14:32:00,
2013-04-10 07:42:00,43.0,14.0,30.08,ESE,110,2.0,-999.0,30,0.00,,,-99.99,,2013-04-10 14:42:00,
2013-04-10 07:52:00,43.0,14.0,30.08,ESE,110,2.0,-999.0,30,0.00,,,-99.99,,2013-04-10 14:52:00,
2013-04-10 08:52:00,48.0,15.0,30.11,SE,130,3.0,-999.0,26,0.00,,,-99.99,,2013-04-10 15:52:00,
2013-04-10 09:52:00,51.0,12.0,30.11,East,100,1.0,-999.0,21,0.00,,,-99.99,,2013-04-10 16:52:00,
2013-04-10 11:22:00,57.0,10.0,30.13,SE,140,1.0,-999.0,15,0.00,,,-99.99,,2013-04-10 18:22:00,
2013-04-10 11:33:00,57.0,10.0,30.13,SE,140,1.0,-999.0,15,0.00,,,-99.99,,2013-04-10 18:33:00,
2013-04-10 11:42:00,57.0,10.0,30.13,SE,140,1.0,-999.0,15,0.00,,,-99.99,,2013-04-10 18:42:00,
2013-04-10 11:52:00,57.0,10.0,30.13,SE,140,1.0,-999.0,15,0.00,,,-99.99,,2013-04-10 18:52:00,
2013-04-10 12:22:00,59.0,10.0,30.12,SE,130,1.0,-999.0,14,0.00,,,-99.99,,2013-04-10 19:22:00,
2013-04-10 12:33:00,59.0,10.0,30.12,SE,130,1.0,-999.0,14,0.00,,,-99.99,,2013-04-10 19:33:00,
2013-04-10 12:42:00,59.0,10.0,30.12,SE,130,1.0,-999.0,14,0.00,,,-99.99,,2013-04-10 19:42:00,
2013-04-10 12:52:00,59.0,10.0,30.12,SE,130,1.0,-999.0,14,0.00,,,-99.99,,2013-04-10 19:52:00,
2013-04-10 13:23:00,60.0,7.0,30.11,East,80,3.0,-999.0,12,0.00,,,-99.99,,2013-04-10 20:23:00,
2013-04-10 13:32:00,60.0,7.0,30.11,East,80,3.0,-999.0,12,0.00,,,-99.99,,2013-04-10 20:32:00,
2013-04-10 13:42:00,60.0,7.0,30.11,East,80,3.0,-999.0,12,0.00,,,-99.99,,2013-04-10 20:42:00,
2013-04-10 13:52:00,60.0,7.0,30.11,East,80,3.0,-999.0,12,0.00,,,-99.99,,2013-04-10 20:52:00,
2013-04-10 14:22:00,63.0,8.0,30.09,North,10,4.0,-999.0,11,0.00,,,-99.99,,2013-04-10 21:22:00,
2013-04-10 14:32:00,63.0,8.0,30.09,North,10,4.0,-999.0,11,0.00,,,-99.99,,2013-04-10 21:32:00,
2013-04-10 14:42:00,63.0,8.0,30.09,North,10,4.0,-999.0,11,0.00,,,-99.99,,2013-04-10 21:42:00,
2013-04-10 14:52:00,63.0,8.0,30.09,North,10,4.0,-999.0,11,0.00,,,-99.99,,2013-04-10 21:52:00,
2013-04-10 15:22:00,63.0,6.0,30.07,SE,130,1.0,-999.0,10,0.00,,,-99.99,,2013-04-10 22:22:00,
2013-04-10 15:33:00,63.0,6.0,30.07,SE,130,1.0,-999.0,10,0.00,,,-99.99,,2013-04-10 22:33:00,
2013-04-10 15:42:00,63.0,6.0,30.07,SE,130,1.0,-999.0,10,0.00,,,-99.99,,2013-04-10 22:42:00,
2013-04-10 15:52:00,63.0,6.0,30.07,SE,130,1.0,-999.0,10,0.00,,,-99.99,,2013-04-10 22:52:00,
2013-04-10 16:22:00,65.0,11.0,30.05,ESE,110,1.0,-999.0,12,0.00,,,-99.99,,2013-04-10 23:22:00,
2013-04-10 16:32:00,65.0,11.0,30.05,ESE,110,1.0,-999.0,12,0.00,,,-99.99,,2013-04-10 23:32:00,
2013-04-10 16:42:00,65.0,11.0,30.05,ESE,110,1.0,-999.0,12,0.00,,,-99.99,,2013-04-10 23:42:00,
2013-04-10 16:52:00,65.0,11.0,30.05,ESE,110,1.0,-999.0,12,0.00,,,-99.99,,2013-04-10 23:52:00,
2013-04-10 17:22:00,63.0,11.0,30.03,North,0,0.0,-999.0,13,0.00,,,-99.99,,2013-04-11 00:22:00,
2013-04-10 17:32:00,63.0,11.0,30.03,North,0,0.0,-999.0,13,0.00,,,-99.99,,2013-04-11 00:32:00,
2013-04-10 17:42:00,63.0,11.0,30.03,North,0,0.0,-999.0,13,0.00,,,-99.99,,2013-04-11 00:42:00,
2013-04-10 17:52:00,63.0,11.0,30.03,North,0,0.0,-999.0,13,0.00,,,-99.99,,2013-04-11 00:52:00,
2013-04-10 18:22:00,62.0,14.0,30.02,North,0,0.0,-999.0,15,0.00,,,-99.99,,2013-04-11 01:22:00,
2013-04-10 18:32:00,62.0,14.0,30.02,North,0,0.0,-999.0,15,0.00,,,-99.99,,2013-04-11 01:32:00,
2013-04-10 18:42:00,62.0,14.0,30.02,North,0,0.0,-999.0,15,0.00,,,-99.99,,2013-04-11 01:42:00,
2013-04-10 18:52:00,62.0,14.0,30.02,North,0,0.0,-999.0,15,0.00,,,-99.99,,2013-04-11 01:52:00,
2013-04-10 19:22:00,58.0,17.0,30.02,North,0,0.0,-999.0,20,0.00,,,-99.99,,2013-04-11 02:22:00,
2013-04-10 19:32:00,58.0,17.0,30.02,North,0,0.0,-999.0,20,0.00,,,-99.99,,2013-04-11 02:32:00,
2013-04-10 19:42:00,58.0,17.0,30.02,North,0,0.0,-999.0,20,0.00,,,-99.99,,2013-04-11 02:42:00,
2013-04-10 19:52:00,58.0,17.0,30.02,North,0,0.0,-999.0,20,0.00,,,-99.99,,2013-04-11 02:52:00,
2013-04-10 20:22:00,52.0,24.0,30.03,North,0,0.0,-999.0,33,0.00,,,-99.99,,2013-04-11 03:22:00,
2013-04-10 20:33:00,52.0,24.0,30.03,North,0,0.0,-999.0,33,0.00,,,-99.99,,2013-04-11 03:33:00,
2013-04-10 20:43:00,52.0,24.0,30.03,North,0,0.0,-999.0,33,0.00,,,-99.99,,2013-04-11 03:43:00,
2013-04-10 20:53:00,52.0,24.0,30.03,North,0,0.0,-999.0,33,0.00,,,-99.99,,2013-04-11 03:53:00,
2013-04-10 21:22:00,47.0,25.0,30.05,North,0,0.0,-999.0,42,0.00,,,-99.99,,2013-04-11 04:22:00,
2013-04-10 21:33:00,47.0,25.0,30.05,North,0,0.0,-999.0,42,0.00,,,-99.99,,2013-04-11 04:33:00,
2013-04-10 21:42:00,47.0,25.0,30.05,North,0,0.0,-999.0,42,0.00,,,-99.99,,2013-04-11 04:42:00,
2013-04-10 21:52:00,47.0,25.0,30.05,North,0,0.0,-999.0,42,0.00,,,-99.99,,2013-04-11 04:52:00,
2013-04-10 22:22:00,44.0,23.0,30.06,North,0,0.0,-999.0,44,0.00,,,-99.99,,2013-04-11 05:22:00,
2013-04-10 22:32:00,44.0,23.0,30.06,North,0,0.0,-999.0,44,0.00,,,-99.99,,2013-04-11 05:32:00,
2013-04-10 23:22:00,43.0,22.0,30.04,North,0,0.0,-999.0,43,0.00,,,-99.99,,2013-04-11 06:22:00,
2013-04-10 23:32:00,43.0,22.0,30.04,North,0,0.0,-999.0,43,0.00,,,-99.99,,2013-04-11 06:32:00,